This demonstration page uses our WeatherBlox Daily Observations layout. Learn more.

Left ArrowRight Arrow

Hourly Observations for February 11, 2019

Temp ( °F °C ) Dew Point ( °F °C ) Humidity (%) Winds ( mph kmh ) Pressure ( in mb ) Visibility ( mi km ) Precip ( " mm )
12:03 am 00:03 Cloudy with Mist and Fog 35 1.7 33 0.6 93 93 N N/A 30.23 1024 1.75 2.816345 N/A
12:17 am 00:17 Cloudy with Mist and Fog 35 1.7 33 0.6 93 93 N N/A 30.22 1023 1.25 2.011675 N/A
12:53 am 00:53 Cloudy with Mist and Fog 34 1.1 33 0.6 97 97 N N/A 30.2 1023 1.25 2.011675 N/A
1:43 am 01:43 Cloudy with Fog 34 1.1 33 0.6 97 97 N N/A 30.2 1023 0.5 0.80467 N/A
1:53 am 01:53 Cloudy with Fog 34 1.1 33 0.6 97 97 N N/A 30.19 1022 0.5 0.80467 N/A
2:53 am 02:53 Mostly Cloudy with Light Rain 35 1.7 33 0.6 93 93 N N/A 30.2 1023 0.75 1.207005 N/A
3:53 am 03:53 Mostly Cloudy with Light Rain 35 1.7 33 0.6 93 93 N N/A 30.18 1022 0.75 1.207005 N/A
4:09 am 04:09 Cloudy with Light Rain 34 1.1 33 0.6 97 97 N N/A 30.17 1022 0.5 0.80467 0.01 0.254
4:17 am 04:17 Cloudy with Light Rain 35 1.7 33 0.6 93 93 ENE 5 7 30.17 1022 1.25 2.011675 0.01 0.254
4:22 am 04:22 Cloudy with Light Rain 36 2.2 34 1.1 93 93 ENE 3 6 30.17 1022 2 3.21868 0.01 0.254
4:43 am 04:43 Cloudy with Light Rain 36 2.2 34 1.1 93 93 NNE 3 6 30.17 1022 3 4.82802 0.01 0.254
4:53 am 04:53 Cloudy with Light Rain 36 2.2 34 1.1 93 93 N N/A 30.15 1021 4 6.43736 0.02 0.508
5:16 am 05:16 Cloudy with Light Rain 36 2.2 34 1.1 93 93 N N/A 30.18 1022 1.75 2.816345 N/A
5:31 am 05:31 Cloudy with Light Rain 35 1.7 34 1.1 96 96 N N/A 30.18 1022 2 3.21868 0.01 0.254
5:44 am 05:44 Cloudy with Light Rain 35 1.7 34 1.1 96 96 N N/A 30.18 1022 1.75 2.816345 0.01 0.254
5:53 am 05:53 Cloudy with Light Rain 36 2.2 34 1.1 93 93 N N/A 30.16 1021 2.5 4.02335 0.01 0.254
6:00 am 06:00 Cloudy with Light Rain 35 1.7 34 1.1 96 96 N N/A 30.18 1022 1.5 2.41401 N/A
6:53 am 06:53 Cloudy with Light Rain 35 1.7 33 0.6 93 93 N N/A 30.17 1022 1.25 2.011675 N/A
6:56 am 06:56 Cloudy with Light Rain 35 1.7 33 0.6 93 93 N N/A 30.18 1022 2 3.21868 N/A
7:06 am 07:06 Cloudy with Light Rain 35 1.7 33 0.6 93 93 N N/A 30.19 1022 3 4.82802 N/A
7:14 am 07:14 Cloudy with Mist and Fog 35 1.7 33 0.6 93 93 N N/A 30.19 1022 2.5 4.02335 N/A
7:25 am 07:25 Cloudy with Mist and Fog 35 1.7 33 0.6 93 93 SSE 5 7 30.18 1022 2 3.21868 N/A
7:27 am 07:27 Cloudy with Mist and Fog 35 1.7 33 0.6 93 93 SSE 5 7 30.18 1022 1.25 2.011675 N/A
7:37 am 07:37 Cloudy with Mist and Fog 35 1.7 33 0.6 93 93 NE 3 6 30.18 1022 1 1.60934 N/A
7:43 am 07:43 Cloudy with Light Rain 35 1.7 33 0.6 93 93 N N/A 30.18 1022 1.25 2.011675 N/A
7:47 am 07:47 Cloudy with Light Rain 36 2 34 1 93 93 NNE 3 6 30.18 1022 2 3.21868 N/A
7:53 am 07:53 Cloudy with Light Rain 36 2.2 34 1.1 93 93 NNE 3 6 30.17 1022 3 4.82802 N/A
8:09 am 08:09 Cloudy with Mist and Fog 35 1.7 34 1.1 96 96 NE 3 6 30.18 1022 1.75 2.816345 N/A
8:19 am 08:19 Cloudy with Mist and Fog 36 2.2 34 1.1 93 93 N N/A 30.18 1022 1.5 2.41401 N/A
8:34 am 08:34 Cloudy with Mist and Fog 36 2.2 34 1.1 93 93 N N/A 30.18 1022 0.75 1.207005 N/A
8:40 am 08:40 Cloudy with Mist and Fog 37 2.8 35 1.7 93 93 N N/A 30.19 1022 1.75 2.816345 N/A
8:49 am 08:49 Cloudy with Mist and Fog 37 3 36 2 93 93 N N/A 30.18 1022 2.5 4.02335 N/A
8:53 am 08:53 Cloudy with Mist and Fog 37 2.8 35 1.7 93 93 N N/A 30.17 1022 3 4.82802 N/A
9:06 am 09:06 Cloudy with Mist and Fog 38 3.3 36 2.2 93 93 ENE 3 6 30.19 1022 4 6.43736 N/A
9:53 am 09:53 Cloudy with Light Rain 38 3.3 37 2.8 97 97 ENE 3 6 30.16 1022 4 6.43736 N/A
10:53 am 10:53 Cloudy with Light Rain 40 4.4 38 3.3 93 93 NE 3 6 30.16 1021 6 9.65604 N/A
11:53 am 11:53 Cloudy with Light Rain 41 5 39 3.9 93 93 E 8 13 30.14 1021 8 12.87472 N/A
12:53 pm 12:53 Cloudy with Light Rain 42 5.6 40 4.4 92 92 E 6 9 30.1 1019 6 9.65604 0.01 0.254
1:53 pm 13:53 Cloudy with Light Rain 42 5.6 39 3.9 89 89 ESE 5 7 30.08 1019 10 16.0934 0.01 0.254
2:35 pm 14:35 Cloudy with Light Rain 42 5.6 40 4.4 92 92 ESE 5 7 30.08 1019 7 11.26538 0.03 0.762
2:53 pm 14:53 Cloudy with Light Rain 42 5.6 40 4.4 92 92 E 5 7 30.07 1018 6 9.65604 0.05 1.27
3:33 pm 15:33 Cloudy with Light Rain 42 5.6 40 4.4 92 92 E 6 9 30.07 1018 7 11.26538 0.03 0.762
3:53 pm 15:53 Cloudy with Light Rain 42 5.6 40 4.4 92 92 E 8 13 30.05 1018 6 9.65604 0.05 1.27
4:53 pm 16:53 Cloudy with Light Rain 41 5 39 3.9 93 93 E 6 9 30.04 1017 8 12.87472 0.04 1.016
5:53 pm 17:53 Cloudy with Light Rain 41 5 39 3.9 93 93 ENE 5 7 30.04 1017 5 8.0467 0.06 1.524
6:53 pm 18:53 Cloudy with Rain 40 4.4 38 3.3 93 93 ENE 6 9 30.04 1017 6 9.65604 0.1 2.54
7:53 pm 19:53 Cloudy with Light Rain 39 3.9 37 2.8 93 93 E 8 13 30.03 1017 8 12.87472 0.07 1.778
8:53 pm 20:53 Cloudy with Light Rain 39 3.9 37 2.8 93 93 E 7 11 30 1016 7 11.26538 0.06 1.524
9:53 pm 21:53 Cloudy with Light Rain 39 3.9 37 2.8 93 93 E 7 11 29.97 1015 8 12.87472 0.04 1.016
10:53 pm 22:53 Cloudy with Light Rain 39 3.9 37 2.8 93 93 E 8 13 29.95 1014 7 11.26538 0.06 1.524
11:53 pm 23:53 Cloudy with Rain 39 3.9 37 2.8 93 93 E 8 13 29.91 1013 2.5 4.02335 0.06 1.524

Powered by AerisWeather